Other Public Products
Issued by NWS Grand Forks, ND

Home | Current Version | Previous Version | Graphics & Text | Print | Product List | Glossary On
Versions: 1 2 3 4 5 6 7 8 9 10 11 12 13 14 15 16 17 18 19 20 21 22 23 24 25 26 27 28 29 30 31 32 33 34 35 36 37 38 39 40 41 42 43 44 45 46 47 48 49 50
000
FPUS83 KFGF 012231
OPUFGF
PRAIRIE TO PINES WEATHER ROUNDUP
NATIONAL WEATHER SERVICE EASTERN NORTH DAKOTA/GRAND FORKS ND
500 PM CDT WED OCT 01 2014

 **SATELLITE DATA USED TO AUGMENT SKY COVER AT AUTOMATED STATIONS**
 *****  WEATHER ACROSS EASTERN NORTH DAKOTA  *****

CITY           SKY/WX    TMP DP  RH WIND       PRES   REMARKS
GRAND FORKS    CLOUDY    64  54  69 SW17G23   29.62R
GRAND FORKS AF CLOUDY    62  57  82 SW12      29.63R
GRAND CITY NWS   N/A     59 N/A N/A SW12        N/A
BUXTON           N/A     63  54  72 W14         N/A
DEVILS LAKE    CLOUDY    61  46  59 W17G24    29.63R
FARGO          CLOUDY    66  50  56 W16       29.67R
WAHPETON ARPT  PTCLDY    66  46  48 NW17G23   29.70R
$$

 *****  WEATHER ACROSS CENTRAL AND WESTERN NORTH DAKOTA  *****

CITY           SKY/WX    TMP DP  RH WIND       PRES   REMARKS
JAMESTOWN      CLOUDY    60  49  66 W14       29.70R
BISMARCK       CLOUDY    60  49  66 W15G26    29.76R
MINOT          CLOUDY    58  48  69 W17G25    29.69R
MINOT AFB      CLOUDY    56  51  82 W21G31    29.68R
GARRISON         N/A     60  48  64 W16G25    29.73R
WILLISTON      CLOUDY    57  44  62 NW18G25   29.78R
DICKINSON      CLOUDY    55  46  71 W12       29.79S
HETTINGER      CLOUDY    54  46  74 W14       29.84R
$$

 *****  OTHER OBSERVATIONS NORTHEAST NORTH DAKOTA  *****

CITY           SKY/WX    TMP DP  RH WIND       PRES   REMARKS
WALHALLA         N/A     61  50  67 W10G24    29.58R
LANGDON        CLOUDY    55  48  76 W20G26    29.61R
CAVALIER       MOCLDY    64  50  59 SW12G21   29.58R
GRAFTON        CLOUDY    63  54  72 W13       29.60R
CANDO          CLOUDY    59  48  67 W12G20    29.64R
FORT TOTTEN      N/A     61  50  66 NW7       29.95S
ROLLA          MOCLDY    57  48  72 W15G23    29.63R
RUGBY          MOCLDY    57  50  77 W21       29.65R
 ***** THE ABOVE OBSERVATIONS ARE NON NWS ARE NOT QUALITY
        CONTROLLED AND MAY MIS-REPORT RAIN FOR SNOW...
$$

 *****  OTHER OBSERVATIONS SOUTHEAST NORTH DAKOTA *****

CITY           SKY/WX    TMP DP  RH WIND       PRES   REMARKS
COOPERSTOWN    NOT AVBL
VALLEY CITY    CLOUDY    61  52  72 W14       29.70R
OAKES            N/A     63  48  59 W16       29.73R
GWINNER        CLOUDY    64  48  55 W13G20    29.73R
SHEYENNE NWR     N/A     64  50  59 W10       29.95S
BUFFALO          N/A     63  46  52 W13         N/A
WYNDMERE         N/A     66  52  59 W9          N/A
 ***** THE ABOVE OBSERVATIONS ARE NON NWS ARE NOT QUALITY
       CONTROLLED AND MAY MIS-REPORT RAIN FOR SNOW...
$$

  *****  WEATHER ACROSS NORTHERN MINNESOTA  *****

CITY           SKY/WX    TMP DP  RH WIND       PRES   REMARKS
FLAG ISLAND    CLOUDY    57  54  88 S26       29.55R
WARROAD        LGT RAIN  61  55  82 SW9G22    29.59R
ROSEAU         PTSUNNY   63  55  77 SW15      29.58R
HALLOCK        PTSUNNY   64  50  59 W21       29.58R
THF RVR FALLS  CLOUDY    63  52  67 SW17      29.63R
HALSTAD          N/A     64  48  55 W15         N/A
FOSSTON        CLOUDY    63  52  67 W15       29.66R
BAUDETTE       LGT RAIN  57  53  86 S9        29.62S
WASKISH        CLOUDY    57  54  88 S10G16    29.65S
CROOKSTON      CLOUDY    64  54  68 W17       29.64R
$$
  *****  WEATHER ACROSS CENTRAL AND WEST MINNESOTA  *****

CITY           SKY/WX    TMP DP  RH WIND       PRES   REMARKS
BEMIDJI        CLOUDY    57  53  86 S15       29.67S
PARK RAPIDS    CLOUDY    56  54  93 S14       29.69S FOG
WADENA         CLOUDY    57  55  94 S9        29.71R
DETROIT LAKES  MOSUNNY   66  52  59 W9        29.69R
MOORHEAD       NOT AVBL
FERGUS FALLS   PTSUNNY   70  48  46 NW17      29.69R
ELBOW LAKE     MOCLDY    69  53  55 W9        29.70R
MORRIS MN      MOSUNNY   72  55  56 W3        29.70R
STAPLES        CLOUDY    55  54  94 SE7       29.72S FOG
WHEATON        SUNNY     66  52  59 W10       29.73R
$$
  *****  WEATHER ELSEWHERE ACROSS MINNESOTA  *****

CITY           SKY/WX    TMP DP  RH WIND       PRES   REMARKS
DULUTH         CLOUDY    50  48  93 SE8       29.78R FOG
INTRNTL FALLS  CLOUDY    54  50  86 S8        29.68R
ELY            LGT RAIN  48  46  93 S7        29.75F
CLOQUET        CLOUDY    50  48  93 SE5       29.78R
BRAINERD       CLOUDY    53  51  93 S8        29.75R
HIBBING        LGT RAIN  51  48  89 SE9       29.75F
ALEXANDRIA     MOSUNNY   62  57  83 S13       29.72R
SAINT CLOUD    CLOUDY    58  53  84 S9        29.75R
MINNEAPOLIS    CLOUDY    56  54  93 SE7       29.78R
$$

  *****  WEATHER ACROSS SOUTH DAKOTA  *****

CITY           SKY/WX    TMP DP  RH WIND       PRES   REMARKS
SIOUX FALLS    PTSUNNY   74  53  48 NW10      29.73R
BROOKINGS      NOT AVBL
WATERTOWN      MOSUNNY   69  49  48 W13       29.73R
HURON          PTSUNNY   72  47  40 NW12      29.73R
SISSETON         N/A     68  51  54 NW15      29.70R
ABERDEEN       PTSUNNY   68  50  52 NW16G25   29.74R
MITCHELL       MOSUNNY   75  49  39 W10       29.74R
PIERRE         PTSUNNY   65  48  54 NW22      29.78R
MOBRIDGE       CLOUDY    62  49  62 NW15G23   29.77R
RAPID CITY     CLOUDY    53  44  71 N15       29.89R
$$

  *****  SOME WEATHER IN NEARBY STATES *****

CITY           SKY/WX    TMP DP  RH WIND       PRES   REMARKS
GLASGOW MT     MOSUNNY   60  38  43 W16G25    29.82S
GREAT FALLS MT PTSUNNY   58  32  37 SW23G33   29.89F
CHEYENNE WY    LGT RAIN  39  34  82 NW15G24   29.99R
SCOTTSBLUFF NE CLOUDY    59  45  59 NW17      29.88R
OMAHA NE       PTSUNNY   74  62  66 VRB3      29.73R
DES MOINES IA  PTSUNNY   71  64  78 S9        29.76R
DAVENPORT IA   NOT AVBL
CHICAGO IL     PTSUNNY   67  52  58 SE13      29.89F
EAU CLAIRE WI  LGT RAIN  55  53  93 SE5       29.81S FOG
LA CROSSE WI   CLOUDY    63  55  75 W3        29.81S
$$

  *****  SOME NATIONAL WEATHER *****

CITY           SKY/WX    TMP DP  RH WIND       PRES   REMARKS
LA GUARDIA NY  CLOUDY    64  58  80 NE9       30.03S
RALEIGH NC     PTSUNNY   76  62  62 CALM      30.00S
ATLANTA GA     PTSUNNY   82  58  43 SE3       29.98R
NEW ORLEANS LA PTSUNNY   83  73  72 SE10      29.88F
OKLAHOMA CITY  MOSUNNY   93  62  35 S17G25    29.68F HX  93
ALBUQUERQUE NM MOSUNNY   77  27  15 SW21G28   29.89F
SALT LAKE CITY LGT RAIN  53  39  59 NW8       30.11R
LOS ANGELES CA MOSUNNY   72  62  71 W13       29.78F
BOISE ID       SUNNY     62  36  37 NW14      30.14S
SEATTLE WA     MOSUNNY   63  49  60 W5        30.20F
$$

*** WEATHER ACROSS MANITOBA...SASKATCHEWAN AND ONTARIO ***
                ***ONTARIO***

CITY           SKY/WX    TMP DP  RH WIND       PRES   REMARKS
GERALDTON      DRIZZLE   52  50  93 S14G20    29.87F
THUNDER BAY    LGT RAIN  50  48  93 E6        29.84F FOG
SIOUX LOOKOUT  CLOUDY    54  50  87 S9G18     29.66
TORONTO        DRIZZLE   59  57  94 E7        30.07  FOG
BIG TROUT LK   MOSUNNY   57  48  72 S18G24    29.54S
PICKLE LAKE    CLOUDY    54  46  76 S12       29.67S
DRYDEN         CLOUDY    55  50  82 S15G21    29.64
KENORA         DRIZZLE   55  52  88 S13G24    29.57
$$
                *** MANITOBA***

CITY           SKY/WX    TMP DP  RH WIND       PRES   REMARKS
BRANDON        LGT RAIN  57  50  77 W16G23    29.57R
DAUPHIN        PTSUNNY   57  50  77 W23G30    29.50R
ISLAND LAKE    LGT RAIN  55  55 100 SE12G18   29.34F FOG
PILOT MOUND      N/A     57  48  72 W15G22      N/A
THE PAS        LGT RAIN  50  48  93 NW23G32   29.42R
THOMPSON       LGT RAIN  46  46 100 CALM      29.31S
WINNIPEG       CLOUDY    61  52  72 SW12G18   29.52
LYNN LAKE      LGT RAIN  48  46  93 NW13G21   29.39R
CHURCHILL      LGT RAIN  43  41  93 SE12      29.42S
GILLAM         CLOUDY    54  48  82 S12       29.34F
$$
                ***SASKATCHEWAN***

CITY           SKY/WX    TMP DP  RH WIND       PRES   REMARKS
ESTEVAN        PTSUNNY   55  50  82 NW15      29.71S
KINDERSLEY     MOSUNNY   59  28  31 NW17      29.76R
LLOYDMINSTER   CLOUDY    55  32  41 NW16G25   29.71
PRINCE ALBERT  PTSUNNY   59  39  47 NW15G25   29.62S
REGINA         PTSUNNY   57  43  58 NW17G28   29.70R


USA.gov is the U.S. government's official web portal to all federal, state and local government web resources and services.